| time (UTC) | temp F | wind direction | speed MPH | gust MPH | rain 1hr in | rain 24hr in | rain mn in | humidity % | barometer mb |
| 20260902210340 | 84 | 186 | 25.0 | 0.0 | 0.00 | 0.00 | 0.00 | 19 | 1007.9 |
| 20260902205327 | 83 | 206 | 29.0 | 0.0 | 0.00 | 0.00 | 0.00 | 19 | 1007.3 |
| 20260902204351 | 84 | 215 | 25.0 | 0.0 | 0.00 | 0.00 | 0.00 | 19 | 1007.7 |
| 20260902203357 | 83 | 219 | 23.0 | 0.0 | 0.00 | 0.00 | 0.00 | 20 | 1007.7 |
| 20260902202340 | 82 | 190 | 23.0 | 0.0 | 0.00 | 0.00 | 0.00 | 20 | 1007.9 |
| 20260902201403 | 84 | 200 | 24.0 | 0.0 | 0.00 | 0.00 | 0.00 | 22 | 1007.5 |
| 20260902200343 | 83 | 176 | 25.0 | 0.0 | 0.00 | 0.00 | 0.00 | 21 | 1007.5 |
| 20260902195326 | 83 | 225 | 26.0 | 0.0 | 0.00 | 0.00 | 0.00 | 22 | 1007.9 |
| 20260902194330 | 84 | 200 | 27.0 | 0.0 | 0.00 | 0.00 | 0.00 | 21 | 1008.3 |
| 20260902193337 | 85 | 198 | 24.0 | 0.0 | 0.00 | 0.00 | 0.00 | 21 | 1007.9 |
| 20260902192327 | 82 | 190 | 18.0 | 0.0 | 0.00 | 0.00 | 0.00 | 25 | 1007.8 |
| 20260902191329 | 77 | 198 | 11.0 | 0.0 | 0.00 | 0.00 | 0.00 | 36 | 1008.7 |
| 20260902190335 | 76 | 125 | 8.0 | 0.0 | 0.00 | 0.00 | 0.00 | 47 | 1009.0 |
| 20260902185338 | 74 | 57 | 10.0 | 0.0 | 0.00 | 0.00 | 0.00 | 53 | 1008.7 |
| 20260902184344 | 75 | 80 | 12.0 | 0.0 | 0.00 | 0.00 | 0.00 | 52 | 1008.9 |
| 20260902183347 | 73 | 93 | 9.0 | 0.0 | 0.00 | 0.00 | 0.00 | 53 | 1009.5 |
| 20260902182329 | 72 | 77 | 8.0 | 0.0 | 0.00 | 0.00 | 0.00 | 53 | 1009.7 |
| 20260902181333 | 73 | 113 | 6.0 | 0.0 | 0.00 | 0.00 | 0.00 | 53 | 1010.0 |
| 20260902180339 | 72 | 89 | 5.0 | 0.0 | 0.00 | 0.00 | 0.00 | 54 | 1010.1 |
| 20260902175326 | 71 | 88 | 4.0 | 0.0 | 0.00 | 0.00 | 0.00 | 55 | 1009.7 |
| 20260902174329 | 70 | 119 | 5.0 | 0.0 | 0.00 | 0.00 | 0.00 | 56 | 1009.8 |
| 20260902173334 | 69 | 84 | 2.0 | 0.0 | 0.00 | 0.00 | 0.00 | 58 | 1010.2 |
| 20260902172404 | 69 | 126 | 3.0 | 0.0 | 0.00 | 0.00 | 0.00 | 60 | 1010.3 |
| 20260902171350 | 68 | 36 | 4.0 | 0.0 | 0.00 | 0.00 | 0.00 | 61 | 1010.3 |
| 20260902170331 | 67 | 40 | 1.0 | 0.0 | 0.00 | 0.00 | 0.00 | 63 | 1011.7 |
| 20260902165335 | 67 | 115 | 1.0 | 0.0 | 0.00 | 0.00 | 0.00 | 65 | 1010.8 |
| 20260902164339 | 66 | 94 | 0.0 | 0.0 | 0.00 | 0.00 | 0.00 | 68 | 1010.4 |
| 20260902163326 | 64 | 16 | 0.0 | 0.0 | 0.00 | 0.00 | 0.00 | 72 | 1010.7 |
| 20260902162329 | 63 | 97 | 2.0 | 0.0 | 0.00 | 0.00 | 0.00 | 75 | 1010.9 |
| 20260902161355 | 62 | 92 | 2.0 | 0.0 | 0.00 | 0.00 | 0.00 | 77 | 1010.9 |
| 20260902160336 | 61 | 79 | 3.0 | 0.0 | 0.00 | 0.00 | 0.00 | 77 | 1011.1 |
| 20260902155343 | 61 | 71 | 4.0 | 0.0 | 0.00 | 0.00 | 0.00 | 76 | 1010.8 |
| 20260902154329 | 61 | 120 | 3.0 | 0.0 | 0.00 | 0.00 | 0.00 | 77 | 1010.9 |
| 20260902153335 | 60 | 109 | 4.0 | 0.0 | 0.00 | 0.00 | 0.00 | 78 | 1011.3 |
| 20260902152359 | 59 | 106 | 3.0 | 0.0 | 0.00 | 0.00 | 0.00 | 78 | 1011.6 |
| 20260902151325 | 59 | 119 | 4.0 | 0.0 | 0.00 | 0.00 | 0.00 | 78 | 1011.8 |
| 20260902150347 | 59 | 89 | 3.0 | 0.0 | 0.00 | 0.00 | 0.00 | 78 | 1011.9 |
| 20260902145334 | 59 | 93 | 4.0 | 0.0 | 0.00 | 0.00 | 0.00 | 78 | 1011.7 |
| 20260902144337 | 59 | 94 | 5.0 | 0.0 | 0.00 | 0.00 | 0.00 | 78 | 1011.8 |
| 20260902143341 | 60 | 80 | 3.0 | 0.0 | 0.00 | 0.00 | 0.00 | 80 | 1011.4 |
| 20260902142344 | 58 | 333 | 2.0 | 0.0 | 0.00 | 0.00 | 0.00 | 83 | 1011.6 |
| 20260902141331 | 57 | 237 | 2.0 | 0.0 | 0.00 | 0.00 | 0.00 | 85 | 1012.0 |
| 20260902140333 | 56 | 242 | 1.0 | 0.0 | 0.00 | 0.00 | 0.00 | 85 | 1012.2 |
| 20260902135336 | 55 | 123 | 1.0 | 0.0 | 0.00 | 0.00 | 0.00 | 85 | 1012.0 |
| 20260902134343 | 55 | 124 | 1.0 | 0.0 | 0.00 | 0.00 | 0.00 | 85 | 1012.0 |
| 20260902133330 | 54 | 210 | 3.0 | 0.0 | 0.00 | 0.00 | 0.00 | 85 | 1012.2 |
| 20260902132354 | 53 | 209 | 3.0 | 0.0 | 0.00 | 0.00 | 0.00 | 85 | 1012.6 |
| 20260902131336 | 52 | 261 | 4.0 | 0.0 | 0.00 | 0.00 | 0.00 | 85 | 1012.7 |
| 20260902130338 | 52 | 279 | 4.0 | 0.0 | 0.00 | 0.00 | 0.00 | 84 | 1012.0 |
| 20260902125401 | 52 | 242 | 2.0 | 0.0 | 0.00 | 0.00 | 0.00 | 84 | 1012.5 |
| 20260902124327 | 53 | 305 | 3.0 | 0.0 | 0.00 | 0.00 | 0.00 | 83 | 1012.9 |
| 20260902123330 | 53 | 261 | 2.0 | 0.0 | 0.00 | 0.00 | 0.00 | 83 | 1013.0 |
| 20260902122359 | 53 | 192 | 2.0 | 0.0 | 0.00 | 0.00 | 0.00 | 83 | 1012.9 |
| 20260902121342 | 54 | 128 | 2.0 | 0.0 | 0.00 | 0.00 | 0.00 | 82 | 1012.7 |
| 20260902120330 | 54 | 89 | 2.0 | 0.0 | 0.00 | 0.00 | 0.00 | 82 | 1012.8 |
| 20260902115344 | 55 | 134 | 3.0 | 0.0 | 0.00 | 0.00 | 0.00 | 82 | 1012.4 |
| 20260902114328 | 55 | 97 | 2.0 | 0.0 | 0.00 | 0.00 | 0.00 | 82 | 1012.6 |
| 20260902113334 | 55 | 97 | 2.0 | 0.0 | 0.00 | 0.00 | 0.00 | 81 | 1012.6 |
| 20260902112341 | 56 | 127 | 4.0 | 0.0 | 0.00 | 0.00 | 0.00 | 81 | 1012.7 |
| 20260902111344 | 56 | 181 | 6.0 | 0.0 | 0.00 | 0.00 | 0.00 | 81 | 1012.8 |
| 20260902110348 | 56 | 167 | 6.0 | 0.0 | 0.00 | 0.00 | 0.00 | 81 | 1012.8 |
| 20260902105329 | 56 | 196 | 9.0 | 0.0 | 0.00 | 0.00 | 0.00 | 80 | 1013.7 |
| 20260902104336 | 56 | 144 | 9.0 | 0.0 | 0.00 | 0.00 | 0.00 | 80 | 1012.9 |
| 20260902103359 | 55 | 77 | 10.0 | 0.0 | 0.00 | 0.00 | 0.00 | 79 | 1012.7 |
| 20260902102341 | 56 | 43 | 3.0 | 0.0 | 0.00 | 0.00 | 0.00 | 77 | 1013.5 |
| 20260902101343 | 56 | 119 | 4.0 | 0.0 | 0.00 | 0.00 | 0.00 | 77 | 1014.2 |
| 20260902100326 | 57 | 96 | 2.0 | 0.0 | 0.00 | 0.00 | 0.00 | 76 | 1014.3 |
| 20260902095333 | 57 | 211 | 2.0 | 0.0 | 0.00 | 0.00 | 0.00 | 77 | 1014.7 |
| 20260902094336 | 58 | 144 | 3.0 | 0.0 | 0.00 | 0.00 | 0.00 | 77 | 1014.5 |
| 20260902093358 | 57 | 85 | 3.0 | 0.0 | 0.00 | 0.00 | 0.00 | 75 | 1014.4 |
| 20260902092340 | 57 | 72 | 6.0 | 0.0 | 0.00 | 0.00 | 0.00 | 73 | 1014.4 |
| 20260902091327 | 58 | 242 | 8.0 | 0.0 | 0.00 | 0.00 | 0.00 | 72 | 1014.1 |
| 20260902090334 | 59 | 207 | 10.0 | 0.0 | 0.00 | 0.00 | 0.00 | 71 | 1014.5 |
| 20260902085337 | 59 | 216 | 11.0 | 0.0 | 0.00 | 0.00 | 0.00 | 71 | 1014.7 |
| 20260902084340 | 60 | 223 | 6.0 | 0.0 | 0.00 | 0.00 | 0.00 | 71 | 1014.3 |
| 20260902083327 | 60 | 234 | 5.0 | 0.0 | 0.00 | 0.00 | 0.00 | 72 | 1014.4 |
| 20260902082350 | 60 | 344 | 6.0 | 0.0 | 0.00 | 0.00 | 0.00 | 72 | 1014.4 |
| 20260902081332 | 61 | 210 | 8.0 | 0.0 | 0.00 | 0.00 | 0.00 | 72 | 1014.4 |
| 20260902080335 | 61 | 201 | 6.0 | 0.0 | 0.00 | 0.00 | 0.00 | 70 | 1014.6 |
| 20260902075337 | 62 | 235 | 4.0 | 0.0 | 0.00 | 0.00 | 0.00 | 68 | 1014.5 |
| 20260902074344 | 62 | 161 | 2.0 | 0.0 | 0.00 | 0.00 | 0.00 | 67 | 1014.9 |
| 20260902073328 | 62 | 306 | 2.0 | 0.0 | 0.00 | 0.00 | 0.00 | 67 | 1014.4 |
| 20260902072334 | 61 | 280 | 3.0 | 0.0 | 0.00 | 0.00 | 0.00 | 67 | 1014.4 |
| 20260902071336 | 62 | 273 | 4.0 | 0.0 | 0.00 | 0.00 | 0.00 | 64 | 1014.2 |
| 20260902070343 | 64 | 310 | 5.0 | 0.0 | 0.00 | 0.00 | 0.00 | 62 | 1014.6 |
| 20260902065325 | 64 | 322 | 8.0 | 0.0 | 0.00 | 0.00 | 0.00 | 62 | 1013.9 |
| 20260902064328 | 65 | 302 | 9.0 | 0.0 | 0.00 | 0.00 | 0.00 | 60 | 1014.0 |
| 20260902063331 | 67 | 302 | 13.0 | 0.0 | 0.00 | 0.00 | 0.00 | 56 | 1014.3 |
| 20260902062337 | 68 | 276 | 19.0 | 0.0 | 0.00 | 0.00 | 0.00 | 54 | 1014.0 |
| 20260902061324 | 69 | 239 | 26.0 | 0.0 | 0.00 | 0.00 | 0.00 | 48 | 1013.4 |
| 20260902060350 | 70 | 204 | 20.0 | 0.0 | 0.00 | 0.00 | 0.00 | 48 | 1013.4 |
| 20260902055352 | 64 | 234 | 7.0 | 0.0 | 0.00 | 0.00 | 0.00 | 66 | 1012.7 |
| 20260902054354 | 61 | 225 | 5.0 | 0.0 | 0.00 | 0.00 | 0.00 | 68 | 1012.4 |
| 20260902053339 | 61 | 190 | 3.0 | 0.0 | 0.00 | 0.00 | 0.00 | 67 | 1012.1 |
| 20260902052345 | 62 | 146 | 3.0 | 0.0 | 0.00 | 0.00 | 0.00 | 65 | 1011.9 |
| 20260902051328 | 63 | 75 | 2.0 | 0.0 | 0.00 | 0.00 | 0.00 | 64 | 1011.6 |
| 20260902050330 | 63 | 83 | 3.0 | 0.0 | 0.00 | 0.00 | 0.00 | 63 | 1011.8 |
| 20260902045333 | 63 | 86 | 2.0 | 0.0 | 0.00 | 0.00 | 0.00 | 63 | 1012.3 |
| 20260902044400 | 64 | 172 | 1.0 | 0.0 | 0.00 | 0.00 | 0.00 | 61 | 1012.6 |
| 20260902043325 | 64 | 190 | 1.0 | 0.0 | 0.00 | 0.00 | 0.00 | 60 | 1012.5 |
| 20260902042328 | 65 | 138 | 2.0 | 0.0 | 0.00 | 0.00 | 0.00 | 59 | 1012.1 |
| 20260902040351 | 65 | 146 | 3.0 | 0.0 | 0.00 | 0.00 | 0.00 | 58 | 1012.8 |
| 20260902035336 | 65 | 78 | 3.0 | 0.0 | 0.00 | 0.00 | 0.00 | 57 | 1011.7 |
| 20260902034337 | 67 | 73 | 3.0 | 0.0 | 0.00 | 0.00 | 0.00 | 54 | 1011.5 |
| 20260902033337 | 67 | 97 | 2.0 | 0.0 | 0.00 | 0.00 | 0.00 | 54 | 1011.5 |
| 20260902032400 | 67 | 78 | 3.0 | 0.0 | 0.00 | 0.00 | 0.00 | 53 | 1011.6 |
| 20260902031341 | 67 | 75 | 4.0 | 0.0 | 0.00 | 0.00 | 0.00 | 52 | 1011.5 |
| 20260902030326 | 68 | 28 | 0.0 | 0.0 | 0.00 | 0.00 | 0.00 | 51 | 1012.1 |
| 20260902025328 | 68 | 345 | 2.0 | 0.0 | 0.00 | 0.00 | 0.00 | 50 | 1011.2 |
| 20260902024328 | 69 | 176 | 6.0 | 0.0 | 0.00 | 0.00 | 0.00 | 47 | 1010.8 |
| 20260902023329 | 70 | 150 | 6.0 | 0.0 | 0.00 | 0.00 | 0.00 | 46 | 1011.7 |
| 20260902022358 | 70 | 186 | 5.0 | 0.0 | 0.00 | 0.00 | 0.00 | 48 | 1011.2 |
| 20260902021338 | 71 | 165 | 4.0 | 0.0 | 0.00 | 0.00 | 0.00 | 48 | 1011.0 |
| 20260902020341 | 72 | 158 | 5.0 | 0.0 | 0.00 | 0.00 | 0.00 | 47 | 1010.7 |
| 20260902015404 | 74 | 159 | 4.0 | 0.0 | 0.00 | 0.00 | 0.00 | 44 | 1010.7 |
| 20260902014326 | 75 | 125 | 3.0 | 0.0 | 0.00 | 0.00 | 0.00 | 40 | 1010.7 |
| 20260902013333 | 75 | 115 | 4.0 | 0.0 | 0.00 | 0.00 | 0.00 | 39 | 1010.8 |
| 20260902012335 | 76 | 143 | 4.0 | 0.0 | 0.00 | 0.00 | 0.00 | 41 | 1010.6 |
| 20260902011359 | 77 | 123 | 4.0 | 0.0 | 0.00 | 0.00 | 0.00 | 39 | 1010.5 |
| 20260902010344 | 77 | 97 | 4.0 | 0.0 | 0.00 | 0.00 | 0.00 | 37 | 1010.5 |
| 20260902005330 | 77 | 102 | 6.0 | 0.0 | 0.00 | 0.00 | 0.00 | 37 | 1010.8 |
| 20260902004332 | 78 | 87 | 6.0 | 0.0 | 0.00 | 0.00 | 0.00 | 35 | 1010.6 |
| 20260902003335 | 78 | 89 | 6.0 | 0.0 | 0.00 | 0.00 | 0.00 | 38 | 1010.5 |
| 20260902002338 | 78 | 86 | 6.0 | 0.0 | 0.00 | 0.00 | 0.00 | 37 | 1010.7 |
| 20260902001326 | 79 | 81 | 8.0 | 0.0 | 0.00 | 0.00 | 0.00 | 34 | 1010.8 |
| 20260902000332 | 79 | 86 | 9.0 | 0.0 | 0.00 | 0.00 | 0.00 | 34 | 1010.8 |
| 20260901235335 | 80 | 82 | 10.0 | 0.0 | 0.00 | 0.00 | 0.00 | 31 | 1011.0 |
| 20260901234338 | 79 | 85 | 10.0 | 0.0 | 0.00 | 0.00 | 0.00 | 32 | 1011.5 |
| 20260901233345 | 80 | 81 | 11.0 | 0.0 | 0.00 | 0.00 | 0.00 | 32 | 1011.2 |
| 20260901232328 | 80 | 82 | 11.0 | 0.0 | 0.00 | 0.00 | 0.00 | 31 | 1011.1 |
| 20260901231331 | 80 | 85 | 12.0 | 0.0 | 0.00 | 0.00 | 0.00 | 31 | 1011.4 |
| 20260901230357 | 81 | 83 | 11.0 | 0.0 | 0.00 | 0.00 | 0.00 | 32 | 1011.4 |
| 20260901225339 | 80 | 107 | 10.0 | 0.0 | 0.00 | 0.00 | 0.00 | 34 | 1011.3 |
| 20260901224326 | 79 | 91 | 10.0 | 0.0 | 0.00 | 0.00 | 0.00 | 33 | 1011.7 |
| 20260901223328 | 79 | 86 | 9.0 | 0.0 | 0.00 | 0.00 | 0.00 | 31 | 1011.8 |
| 20260901222332 | 80 | 111 | 11.0 | 0.0 | 0.00 | 0.00 | 0.00 | 31 | 1011.8 |
| 20260901221338 | 80 | 90 | 8.0 | 0.0 | 0.00 | 0.00 | 0.00 | 31 | 1012.1 |
| 20260901220325 | 80 | 79 | 9.0 | 0.0 | 0.00 | 0.00 | 0.00 | 31 | 1012.1 |
| 20260901215351 | 80 | 93 | 9.0 | 0.0 | 0.00 | 0.00 | 0.00 | 32 | 1012.9 |
| 20260901214333 | 80 | 90 | 9.0 | 0.0 | 0.00 | 0.00 | 0.00 | 31 | 1012.1 |
| 20260901213338 | 81 | 86 | 9.0 | 0.0 | 0.00 | 0.00 | 0.00 | 32 | 1013.1 |
| 20260901212325 | 81 | 103 | 9.0 | 0.0 | 0.00 | 0.00 | 0.00 | 29 | 1013.0 |
| 20260901211348 | 80 | 91 | 9.0 | 0.0 | 0.00 | 0.00 | 0.00 | 30 | 1012.6 |